�������ċp�F�����K�X���j�^�v���󋵏��
Date,Time,�ċp�F�����K�X���j�^(cps),����,����(m/s)
2022/05/26,00:00,1.5,��,6.9
2022/05/26,00:10,1.5,��,7.4
2022/05/26,00:20,1.5,��,7.6
2022/05/26,00:30,1.5,��,7.2
2022/05/26,00:40,1.5,��,7.1
2022/05/26,00:50,1.6,��,6.6
2022/05/26,01:00,1.5,��,7.2
2022/05/26,01:10,1.5,��,6.6
2022/05/26,01:20,1.4,��,6.9
2022/05/26,01:30,1.4,��,7.4
2022/05/26,01:40,1.5,��,7.8
2022/05/26,01:50,1.4,��,6.9
2022/05/26,02:00,1.6,��,6.5
2022/05/26,02:10,1.5,��,7.3
2022/05/26,02:20,1.4,��,6.1
2022/05/26,02:30,1.5,��,5.2
2022/05/26,02:40,1.5,��쐼,4.5
2022/05/26,02:50,1.5,��,6.6
2022/05/26,03:00,1.5,��,5.2
2022/05/26,03:10,1.4,��쓌,5.5
2022/05/26,03:20,1.5,��,6.2
2022/05/26,03:30,1.5,��,5.4
2022/05/26,03:40,1.5,��,5.7
2022/05/26,03:50,1.4,��,5.5
2022/05/26,04:00,1.4,��,5.7
2022/05/26,04:10,1.5,��,6.3
2022/05/26,04:20,1.4,��,5.7
2022/05/26,04:30,1.5,��,5.8
2022/05/26,04:40,1.5,��쐼,5.5
2022/05/26,04:50,1.5,��쐼,5.2
2022/05/26,05:00,1.6,��쐼,4.8
2022/05/26,05:10,1.5,��쐼,5.1
2022/05/26,05:20,1.4,��쐼,5.0
2022/05/26,05:30,1.4,��,4.2
2022/05/26,05:40,1.4,��,3.6
2022/05/26,05:50,1.5,��,3.3
2022/05/26,06:00,1.5,��,3.5
2022/05/26,06:10,1.5,��,3.5
2022/05/26,06:20,1.5,��쓌,3.0
2022/05/26,06:30,1.5,��쓌,4.6
2022/05/26,06:40,1.5,��쓌,5.9
2022/05/26,06:50,1.5,��쓌,6.9
2022/05/26,07:00,1.5,��쓌,7.5
2022/05/26,07:10,1.5,��,6.4
2022/05/26,07:20,1.3,��,7.6
2022/05/26,07:30,1.4,��,6.8
2022/05/26,07:40,1.5,��,7.5
2022/05/26,07:50,1.6,��,7.5
2022/05/26,08:00,1.6,��쓌,8.4
2022/05/26,08:10,1.6,��쓌,8.9
2022/05/26,08:20,1.4,��,9.7
2022/05/26,08:30,1.5,��,9.6
2022/05/26,08:40,1.4,��쓌,10.5
2022/05/26,08:50,1.4,��쓌,10.6
2022/05/26,09:00,1.5,��쓌,10.4
2022/05/26,09:10,1.4,��쓌,10.2
2022/05/26,09:20,1.4,��쓌,11.7
2022/05/26,09:30,1.5,��쓌,11.7
2022/05/26,09:40,1.4,��쓌,11.6
2022/05/26,09:50,1.5,��쓌,10.4
2022/05/26,10:00,1.5,��쓌,11.6
2022/05/26,10:10,1.5,��쓌,12.5
2022/05/26,10:20,1.5,��쓌,12.5
2022/05/26,10:30,1.5,��쓌,13.0
2022/05/26,10:40,1.5,��쓌,13.8
2022/05/26,10:50,1.4,��쓌,13.5
2022/05/26,11:00,1.4,��쓌,14.1
2022/05/26,11:10,1.5,��쓌,12.5
2022/05/26,11:20,1.5,��쓌,13.8
2022/05/26,11:30,1.4,��쓌,14.4
2022/05/26,11:40,1.4,��쓌,12.1
2022/05/26,11:50,1.5,��쓌,12.7
2022/05/26,12:00,1.5,��쓌,13.0
2022/05/26,12:10,1.5,��쓌,11.3
2022/05/26,12:20,1.5,��쓌,14.9
2022/05/26,12:30,1.3,��쓌,13.8
2022/05/26,12:40,1.5,��쓌,14.7
2022/05/26,12:50,1.5,��,12.4
2022/05/26,13:00,1.5,��,11.9
2022/05/26,13:10,1.5,��쓌,15.2
2022/05/26,13:20,1.4,��쓌,14.7
2022/05/26,13:30,1.5,��쓌,15.0
2022/05/26,13:40,1.5,��쓌,14.1
2022/05/26,13:50,1.5,��쓌,14.9
2022/05/26,14:00,1.5,��,12.4
2022/05/26,14:10,1.6,��,14.1
2022/05/26,14:20,1.5,��쓌,13.3
2022/05/26,14:30,1.5,��쓌,13.0
2022/05/26,14:40,1.5,��쓌,14.6
2022/05/26,14:50,1.6,��쓌,13.5
2022/05/26,15:00,1.6,��,12.4
2022/05/26,15:10,1.5,��,12.7
2022/05/26,15:20,1.5,��쓌,11.8
2022/05/26,15:30,1.4,��쓌,12.2
2022/05/26,15:40,1.4,��쓌,12.5
2022/05/26,15:50,1.4,��쓌,12.4
2022/05/26,16:00,1.5,��쓌,11.9
2022/05/26,16:10,1.4,��쓌,12.0
2022/05/26,16:20,1.5,��,10.2
2022/05/26,16:30,1.6,��,10.6
2022/05/26,16:40,1.5,��,12.1
2022/05/26,16:50,1.5,��,11.3
2022/05/26,17:00,1.4,��,11.1
2022/05/26,17:10,1.5,��,11.3
2022/05/26,17:20,1.4,��,11.6
2022/05/26,17:30,1.5,��,9.9
2022/05/26,17:40,1.4,��,11.6
2022/05/26,17:50,1.5,��,11.0
2022/05/26,18:00,1.4,��,10.0
2022/05/26,18:10,1.5,��,12.4
2022/05/26,18:20,1.4,��,12.7
2022/05/26,18:30,1.5,��,12.1
2022/05/26,18:40,1.4,��,10.0
2022/05/26,18:50,1.5,��,11.7
2022/05/26,19:00,1.4,��,11.8
2022/05/26,19:10,1.5,��,9.4
2022/05/26,19:20,1.6,��,9.7
2022/05/26,19:30,1.4,��,9.0
2022/05/26,19:40,1.5,��,7.9
2022/05/26,19:50,1.5,��,9.4
2022/05/26,20:00,1.6,��,7.3
2022/05/26,20:10,1.6,��,8.3
2022/05/26,20:20,1.5,��,9.6
2022/05/26,20:30,1.4,��,9.3
2022/05/26,20:40,1.6,��,9.0
2022/05/26,20:50,1.5,��,9.8
2022/05/26,21:00,1.4,��,9.8
2022/05/26,21:10,1.5,��,9.1
2022/05/26,21:20,1.5,��,8.0
2022/05/26,21:30,1.4,��,7.2
2022/05/26,21:40,1.5,��,6.5
2022/05/26,21:50,1.4,��,6.4
2022/05/26,22:00,1.5,��,6.6
2022/05/26,22:10,1.4,��,7.4
2022/05/26,22:20,1.4,��,8.9
2022/05/26,22:30,1.4,��,6.7
2022/05/26,22:40,1.5,��,5.9
2022/05/26,22:50,1.6,��,7.5
2022/05/26,23:00,1.4,��,8.3
2022/05/26,23:10,1.4,��,9.4
2022/05/26,23:20,1.6,��,9.4
2022/05/26,23:30,1.5,��,9.8
2022/05/26,23:40,1.5,��,9.3
2022/05/26,23:50,1.5,��,10.4
